When you browse on this site, cookies collect data to enhance your experience and personalize the content and advertising you see.
Visit our Privacy Policy to learn more. By continuing to use the site, you agree to this use of cookies and data.
  • In Schweiz
  • Länderverzeichnis
  • Für 7 Tage
  • Wassertemperatur
  • Wetterkarte
  • Widgets
  • user-avatar
    Anmelden

    Stündliche Wetter Mons

    Heute, 23 Februar, Sonntag

    Zeit Temperatur Niederschläge Wind Luftdruck Luftfeuchtigkeit
    00:00 +9°C° 0 mm 6 m/S 765 mmHg 84%
    01:00 +9°C° 0.2 mm 7 m/S 764 mmHg 86%
    02:00 +9°C° 0.2 mm 7 m/S 763 mmHg 87%
    03:00 +9°C° 0.2 mm 7 m/S 762 mmHg 89%
    04:00 +9°C° 0.4 mm 8 m/S 762 mmHg 89%
    05:00 +9°C° 0.4 mm 10 m/S 761 mmHg 89%
    06:00 +9°C° 0.4 mm 11 m/S 760 mmHg 88%
    07:00 +11°C° 0.2 mm 11 m/S 760 mmHg 87%
    08:00 +12°C° 0.2 mm 11 m/S 759 mmHg 86%
    09:00 +12°C° 0.2 mm 12 m/S 759 mmHg 85%
    10:00 +12°C° 0.1 mm 12 m/S 759 mmHg 84%
    11:00 +12°C° 0.1 mm 12 m/S 759 mmHg 82%
    12:00 +13°C° 0.1 mm 12 m/S 759 mmHg 81%
    13:00 +12°C° 0.2 mm 12 m/S 759 mmHg 82%
    14:00 +12°C° 0.2 mm 11 m/S 759 mmHg 83%
    15:00 +12°C° 0.2 mm 11 m/S 759 mmHg 85%
    16:00 +11°C° 0.6 mm 9 m/S 760 mmHg 84%
    17:00 +10°C° 0.6 mm 8 m/S 761 mmHg 84%
    18:00 +9°C° 0.6 mm 6 m/S 762 mmHg 83%
    19:00 +8°C° 0.1 mm 5 m/S 763 mmHg 83%
    20:00 +7°C° 0.1 mm 4 m/S 764 mmHg 82%
    21:00 +8°C° 0.1 mm 3 m/S 765 mmHg 82%
    22:00 +7°C° 0 mm 2 m/S 765 mmHg 82%
    23:00 +7°C° 0 mm 2 m/S 766 mmHg 81%

    Morgen, 24 Februar, Montag

    Zeit Temperatur Niederschläge Wind Luftdruck Luftfeuchtigkeit
    00:00 +7°C° 0 mm 1 m/S 766 mmHg 80%
    01:00 +7°C° 0 mm 1 m/S 765 mmHg 80%
    02:00 +8°C° 0 mm 1 m/S 765 mmHg 80%
    03:00 +8°C° 0 mm 1 m/S 764 mmHg 80%
    04:00 +7°C° 0.1 mm 2 m/S 764 mmHg 83%
    05:00 +7°C° 0.1 mm 3 m/S 763 mmHg 86%
    06:00 +6°C° 0.1 mm 4 m/S 763 mmHg 89%
    07:00 +7°C° 0 mm 5 m/S 762 mmHg 90%
    08:00 +9°C° 0 mm 6 m/S 761 mmHg 91%
    09:00 +10°C° 0 mm 7 m/S 760 mmHg 92%
    10:00 +10°C° 0 mm 8 m/S 759 mmHg 88%
    11:00 +10°C° 0 mm 9 m/S 758 mmHg 85%
    12:00 +11°C° 0 mm 9 m/S 757 mmHg 82%
    13:00 +11°C° 0 mm 9 m/S 756 mmHg 82%
    14:00 +10°C° 0 mm 9 m/S 755 mmHg 82%
    15:00 +10°C° 0 mm 9 m/S 754 mmHg 82%
    16:00 +10°C° 0.2 mm 9 m/S 754 mmHg 82%
    17:00 +10°C° 0.2 mm 9 m/S 753 mmHg 81%
    18:00 +10°C° 0.2 mm 9 m/S 752 mmHg 81%
    19:00 +10°C° 0.5 mm 9 m/S 752 mmHg 83%
    20:00 +10°C° 0.5 mm 9 m/S 752 mmHg 84%
    21:00 +8°C° 0.5 mm 9 m/S 751 mmHg 86%
    22:00 +8°C° 0.1 mm 9 m/S 752 mmHg 83%
    23:00 +7°C° 0.1 mm 8 m/S 752 mmHg 81%

    übermorgen, 25 Februar, Dienstag

    Zeit Temperatur Niederschläge Wind Luftdruck Luftfeuchtigkeit
    00:00 +6°C° 0.1 mm 8 m/S 752 mmHg 78%
    01:00 +6°C° 0 mm 7 m/S 752 mmHg 77%
    02:00 +5°C° 0 mm 7 m/S 752 mmHg 75%
    03:00 +4°C° 0 mm 6 m/S 752 mmHg 73%
    04:00 +4°C° 0 mm 6 m/S 752 mmHg 75%
    05:00 +3°C° 0 mm 5 m/S 752 mmHg 76%
    06:00 +3°C° 0 mm 5 m/S 752 mmHg 78%
    07:00 +3°C° 0 mm 6 m/S 752 mmHg 75%
    08:00 +4°C° 0 mm 7 m/S 752 mmHg 73%
    09:00 +5°C° 0 mm 8 m/S 752 mmHg 71%
    10:00 +5°C° 0 mm 8 m/S 751 mmHg 66%
    11:00 +6°C° 0 mm 8 m/S 751 mmHg 62%
    12:00 +7°C° 0 mm 9 m/S 751 mmHg 58%
    13:00 +7°C° 0.2 mm 8 m/S 751 mmHg 58%
    14:00 +6°C° 0.2 mm 8 m/S 750 mmHg 59%
    15:00 +6°C° 0.2 mm 8 m/S 750 mmHg 59%
    16:00 +5°C° 0.1 mm 7 m/S 749 mmHg 66%
    17:00 +4°C° 0.1 mm 6 m/S 749 mmHg 72%
    18:00 +5°C° 0.1 mm 5 m/S 748 mmHg 79%
    19:00 +3°C° 0.5 mm 6 m/S 747 mmHg 82%
    20:00 +3°C° 0.5 mm 7 m/S 746 mmHg 86%
    21:00 +3°C° 0.5 mm 7 m/S 745 mmHg 90%
    22:00 +3°C° 1.1 mm 7 m/S 745 mmHg 87%
    23:00 +2°C° 1.1 mm 7 m/S 744 mmHg 83%

    26 Februar, Mittwoch

    Zeit Temperatur Niederschläge Wind Luftdruck Luftfeuchtigkeit
    00:00 +2°C° 1.1 mm 7 m/S 744 mmHg 80%
    01:00 0°C° 0 mm 7 m/S 744 mmHg 79%
    02:00 -1°C° 0 mm 7 m/S 744 mmHg 79%
    03:00 -1°C° 0 mm 6 m/S 744 mmHg 79%
    04:00 -1°C° 0 mm 6 m/S 744 mmHg 79%
    05:00 -2°C° 0 mm 6 m/S 744 mmHg 80%
    06:00 -2°C° 0 mm 7 m/S 744 mmHg 81%
    07:00 -2°C° 0.2 mm 8 m/S 745 mmHg 82%
    08:00 -3°C° 0.2 mm 9 m/S 745 mmHg 84%
    09:00 -2°C° 0.2 mm 10 m/S 746 mmHg 85%
    10:00 -1°C° 1.9 mm 9 m/S 747 mmHg 86%
    11:00 0°C° 1.9 mm 8 m/S 748 mmHg 86%
    12:00 +2°C° 1.9 mm 7 m/S 749 mmHg 87%
    13:00 +2°C° 0.1 mm 7 m/S 750 mmHg 83%
    14:00 +3°C° 0.1 mm 6 m/S 751 mmHg 80%
    15:00 +3°C° 0.1 mm 6 m/S 751 mmHg 76%
    16:00 +2°C° 0.1 mm 5 m/S 752 mmHg 79%
    17:00 +1°C° 0.1 mm 5 m/S 753 mmHg 81%
    18:00 0°C° 0.1 mm 4 m/S 754 mmHg 83%
    19:00 0°C° 0.1 mm 4 m/S 754 mmHg 84%
    20:00 0°C° 0.1 mm 4 m/S 755 mmHg 85%
    21:00 0°C° 0.1 mm 4 m/S 755 mmHg 87%
    22:00 -1°C° 0 mm 4 m/S 755 mmHg 87%
    23:00 -1°C° 0 mm 4 m/S 756 mmHg 87%

    27 Februar, Donnerstag

    Zeit Temperatur Niederschläge Wind Luftdruck Luftfeuchtigkeit
    00:00 0°C° 0 mm 3 m/S 756 mmHg 87%
    01:00 -1°C° 0 mm 3 m/S 756 mmHg 88%
    02:00 -2°C° 0 mm 4 m/S 756 mmHg 89%
    03:00 -2°C° 0 mm 4 m/S 755 mmHg 90%
    04:00 -1°C° 0 mm 4 m/S 755 mmHg 88%
    05:00 -1°C° 0 mm 5 m/S 754 mmHg 87%
    06:00 -2°C° 0 mm 6 m/S 753 mmHg 85%
    07:00 -1°C° 0.7 mm 7 m/S 752 mmHg 89%
    08:00 -1°C° 0.7 mm 9 m/S 750 mmHg 92%
    09:00 -2°C° 0.7 mm 10 m/S 749 mmHg 96%
    10:00 -1°C° 1.8 mm 11 m/S 747 mmHg 95%
    11:00 -1°C° 1.8 mm 11 m/S 746 mmHg 95%
    12:00 -1°C° 1.8 mm 12 m/S 744 mmHg 94%
    13:00 +2°C° 0.2 mm 11 m/S 743 mmHg 93%
    14:00 +5°C° 0.2 mm 10 m/S 742 mmHg 92%
    15:00 +7°C° 0.2 mm 8 m/S 741 mmHg 91%
    16:00 +7°C° 0.1 mm 8 m/S 742 mmHg 90%
    17:00 +7°C° 0.1 mm 8 m/S 742 mmHg 88%
    18:00 +7°C° 0.1 mm 8 m/S 742 mmHg 86%
    19:00 +6°C° 0.1 mm 8 m/S 744 mmHg 86%
    20:00 +5°C° 0.1 mm 8 m/S 745 mmHg 85%
    21:00 +5°C° 0.1 mm 7 m/S 747 mmHg 85%
    22:00 +4°C° 0 mm 6 m/S 747 mmHg 84%
    23:00 +3°C° 0 mm 5 m/S 748 mmHg 84%

    28 Februar, Freitag

    Zeit Temperatur Niederschläge Wind Luftdruck Luftfeuchtigkeit
    00:00 +4°C° 0 mm 4 m/S 749 mmHg 84%
    01:00 +3°C° 0 mm 4 m/S 749 mmHg 86%
    02:00 +1°C° 0 mm 4 m/S 750 mmHg 88%
    03:00 +1°C° 0 mm 4 m/S 750 mmHg 90%
    04:00 +2°C° 0 mm 3 m/S 750 mmHg 90%
    05:00 +1°C° 0 mm 3 m/S 751 mmHg 91%
    06:00 +1°C° 0 mm 3 m/S 751 mmHg 91%
    07:00 +2°C° 0 mm 3 m/S 751 mmHg 89%
    08:00 +3°C° 0 mm 3 m/S 751 mmHg 87%
    09:00 +4°C° 0 mm 3 m/S 751 mmHg 85%
    10:00 +4°C° 0 mm 4 m/S 751 mmHg 82%
    11:00 +5°C° 0 mm 4 m/S 751 mmHg 79%
    12:00 +6°C° 0 mm 5 m/S 750 mmHg 77%
    13:00 +6°C° 0.1 mm 5 m/S 749 mmHg 79%
    14:00 +6°C° 0.1 mm 5 m/S 749 mmHg 81%
    15:00 +7°C° 0.1 mm 5 m/S 748 mmHg 83%
    16:00 +6°C° 0.6 mm 5 m/S 747 mmHg 86%
    17:00 +6°C° 0.6 mm 5 m/S 745 mmHg 90%
    18:00 +5°C° 0.6 mm 5 m/S 744 mmHg 94%
    19:00 +5°C° 1.6 mm 6 m/S 743 mmHg 94%
    20:00 +8°C° 1.6 mm 7 m/S 741 mmHg 93%
    21:00 +9°C° 1.6 mm 8 m/S 740 mmHg 93%
    22:00 +9°C° 1 mm 7 m/S 740 mmHg 92%
    23:00 +9°C° 1 mm 7 m/S 739 mmHg 91%
    Mehr zeigen